Regional Weather Roundup
Issued by NWS

Home | Current Version | Previous Version | Graphics & Text | Print | Product List | Glossary On
Versions: 1 2 3 4 5 6 7 8 9 10 11 12 13 14 15 16 17 18 19 20 21 22 23 24 25 26 27 28 29 30 31 32 33 34 35 36 37 38 39 40 41 42 43 44 45 46 47 48 49 50
670
ASUS44 KLIX 302301
RWRLA
LOUISIANA WEATHER ROUNDUP
NATIONAL WEATHER SERVICE NEW ORLEANS LA
600 PM CDT WED JUL 30 2014

NOTE: "FAIR" INDICATES FEW OR NO CLOUDS BELOW 12,000 FEET WITH NO
      SIGNIFICANT WEATHER AND/OR OBSTRUCTIONS TO VISIBILITY.
      SKY/WX - SKY CONDITION AND SIGNIFICANT WEATHER.
      TMP - AIR TEMPERATURE.    DP   - DEWPOINT TEMPERATURE.
      RH  - RELATIVE HUMIDITY.  PRES - PRESSURE.
      HX  - HEAT INDEX.         WCI  - WIND CHILL INDEX.

*  THESE STATIONS ARE NOT NWS OR FAA STATIONS AND ARE NOT UNDER
   NWS QUALITY CONTROL.

LAZ040-048-061>063-065-066-069-310000-
SOUTHEAST LOUISIANA

CITY           SKY/WX    TMP DP  RH WIND       PRES   REMARKS
N.O. AUDUBON     N/A     87  62  41 MISG        N/A
N.O. INTL ARPT MOSUNNY   86  61  42 N7        29.99F
N.O. LAKEFRONT SUNNY     84  62  47 W8        30.00F
N.O. DOWNTOWN* FAIR      86  57  37 NW7       30.00F
SLIDELL        SUNNY     86  59  39 N8        29.99F
BATON ROUGE    SUNNY     87  62  43 NE7       30.00F
BOOTHVILLE     SUNNY     82  63  52 E5        30.00F
BELLE CHASSE   MOSUNNY   87  56  34 N5        29.99S
BOGALUSA*      FAIR      86  58  38 N5        30.02S
GALLIANO*      NOT AVBL
NEW ROADS*     FAIR      84  65  52 NW7       30.01F
GONZALES*      FAIR      86  64  46 N5        29.99S
HAMMOND*       SUNNY     88  55  33 N6        30.02S
HOUMA*         MOSUNNY   91  61  35 NW6       29.99F
PORT FOURCHON* PTCLDY    84  70  61 SE7       30.00F

$$

LAZ041-044-053-054-310000-
SOUTHWEST LOUISIANA

CITY           SKY/WX    TMP DP  RH WIND       PRES   REMARKS
LAKE CHARLES   SUNNY     89  67  47 CALM      29.98F
LAFAYETTE      SUNNY     87  65  47 NE8       29.99F
PATTERSON      SUNNY     88  66  48 N9        30.02F
SALT POINT       N/A     89  70  53 VRB3      29.97F
NEW IBERIA     SUNNY     89  64  43 N12       29.99F
CHENAULT AIRPK SUNNY     90  64  43 N5        29.99F

$$

LAZ027-028-310000-
CENTRAL LOUISIANA

CITY           SKY/WX    TMP DP  RH WIND       PRES   REMARKS
FORT POLK      SUNNY     88  63  43 NE7       30.00F
ALEXANDRIA INT MOSUNNY   88  63  43 NE6       30.00S
ALEXANDRIA     MOSUNNY   86  67  52 SE6       30.02S

$$

LAZ001-002-310000-
NORTHWEST LOUISIANA

CITY           SKY/WX    TMP DP  RH WIND       PRES   REMARKS
SHREVEPORT     CLOUDY    85  62  46 E9        30.01F
BARKSDALE AFB  CLOUDY    82  65  56 E6        30.02F
DTN SHREVEPORT CLOUDY    82  65  56 NE5       30.02F

$$

LAZ014-016-310000-
NORTHEAST LOUISIANA

CITY           SKY/WX    TMP DP  RH WIND       PRES   REMARKS
MONROE         CLOUDY    82  62  50 NE8       30.05F
TALLULAH       MOSUNNY   84  61  45 NE9       30.04F

$$




USA.gov is the U.S. government's official web portal to all federal, state and local government web resources and services.